315P/LONEOS (2016)

Japanese version
Home page
Updated on August 28, 2018

---------------------------------------------------------------------

* Profile

Designation 315P/2013 V6
Recovery Date November 6, 2013
Magnitude 21.6 mag
Recoverer M. Micheli, Y. Fernandez, C. Lisse, H. Weaver (New Mexico)

* Pictures

* Orbital Elements

Epoch 2016 Nov. 28.0 TT = JDT 2457720.5
T 2016 Dec. 6.82723 TT                                  MPCW
q   2.4204221            (2000.0)            P               Q
n   0.08780382     Peri.   67.18905     -0.68638351     -0.66768575
a   5.0133395      Node    69.55181     +0.50163430     -0.72163000
e   0.5172036      Incl.   17.91510     +0.52653653     -0.18288214
P  11.23
From 2145 observations 2004 Nov. 3-2018 May 19, mean residual 0".5.

* Finding Charts

* Magnitudes Graph

        m1 = 11.0 + 5 log d + 10.0 log r  [    ,-300]  (             - 2016 Feb. 10)
        m1 =  3.2 + 5 log d + 25.0 log r  [-300,    ]  (2016 Feb. 10 -             )

---------------------------------------------------------------------

The orbital elements are published on M.P.E.C. 2018-K95.
The charts are made with StellaNavigator Ver.8 (AstroArts).
The magnitudes graphs are made with Comet for Windows.

---------------------------------------------------------------------

Copyright(C) Seiichi Yoshida (comet@aerith.net). All rights reserved.